Home > Weather > Ravensburg > Past weeks

Flag for Germany Past Weather in Ravensburg, Baden-Württemberg, Germany — Yesterday and Last 2 Weeks

Now
59 °F

Clear.


Feels Like: 58 °F
Forecast: 53 / 84 °F
Wind: 8 mph from Northeast

Location: Friedrichshafen Airport

Current Time: Aug 24, 2016 at 6:22:06 AM

Latest Report: Aug 24, 2016 at 5:50 AM


Visibility: 10 mi

Pressure: 30.24 "Hg

Humidity: 88%

Dew Point: 55 °F

Location of RavensburgLocation

Past Weather in Ravensburg — Graph

°F

Ravensburg Temperature Yesterday

Maximum temperature yesterday: 81 °F (at 3:50 PM)
Minimum temperature yesterday: 52 °F (at 6:20 AM)
Average temperature yesterday: 66 °F

High & Low Weather Summary for the Past Weeks

 TemperatureHumidityPressure
High82 °F (Aug 14, 5:50 PM)100% (Aug 9, 10:50 PM)30.39 "Hg (Aug 9, 10:50 PM)
Low50 °F (Aug 10, 9:20 PM)43% (Aug 11, 4:20 PM)29.86 "Hg (Aug 17, 5:50 PM)
Average64 °F80%30.14 "Hg
* Reported Aug 9 4:20 AM — Aug 24 4:50 AM, Ravensburg, Weather by CustomWeather, © 2016

Note: Actual official high and low records may vary slightly from our data, if they occured in-between our weather recording intervals... More about our weather records

Advertising

Ravensburg Weather History for the Previous 24 Hours

Scroll right to see more
 ConditionsComfort  
Time TempWeatherWind HumidityBarometerVisibility
4:50 AM
Wed, Aug 24
59 °FCool.7 mph94%30.24 "HgN/A
4:20 AM61 °FCool.6 mph88%30.24 "HgN/A
3:50 AM61 °FCool.7 mph88%30.24 "HgN/A
3:20 AM61 °FCool.5 mph88%30.24 "HgN/A
2:50 AM63 °FMild.7 mph83%30.24 "HgN/A
2:20 AM63 °FMild.7 mph83%30.24 "HgN/A
1:50 AM63 °FMild.7 mph83%30.27 "HgN/A
1:20 AM63 °FMild.3 mph83%30.27 "HgN/A
12:50 AM63 °FMild.5 mph83%30.27 "HgN/A
12:20 AM64 °FMild.5 mph78%30.27 "HgN/A
11:50 PM
Tue, Aug 23
66 °FMild.7 mph78%30.27 "HgN/A
11:20 PM66 °FMild.6 mph78%30.27 "HgN/A
10:50 PM66 °FMild.6 mph78%30.27 "HgN/A
9:50 PM68 °FClear.5 mph73%30.30 "Hg10 mi
9:20 PM68 °FClear.3 mph73%30.30 "Hg10 mi
8:50 PM72 °FPassing clouds.5 mph65%30.27 "HgN/A
8:20 PM73 °FSunny.5 mph61%30.27 "Hg10 mi
7:50 PM75 °FSunny.6 mph57%30.27 "Hg10 mi
7:20 PM77 °FSunny.8 mph54%30.27 "Hg10 mi
6:50 PM77 °FSunny.8 mph54%30.27 "Hg10 mi
6:20 PM79 °FSunny.8 mph51%30.27 "Hg10 mi
5:50 PM81 °FSunny.8 mph54%30.27 "Hg10 mi
5:20 PM81 °FSunny.9 mph48%30.30 "Hg10 mi
4:50 PM81 °FSunny.7 mph51%30.30 "Hg10 mi
4:20 PM81 °FSunny.8 mph48%30.30 "Hg10 mi
3:50 PM81 °FSunny.6 mph48%30.30 "Hg10 mi
3:20 PM79 °FSunny.6 mph51%30.30 "Hg10 mi
2:50 PM79 °FSunny.3 mph51%30.30 "Hg10 mi
2:20 PM75 °FSunny.5 mph57%30.33 "Hg10 mi
1:50 PM75 °FSunny.7 mph57%30.33 "Hg10 mi
1:20 PM77 °FSunny.7 mph47%30.33 "Hg10 mi
12:50 PM75 °FPassing clouds.6 mph50%30.33 "HgN/A
12:20 PM73 °FSunny.3 mph57%30.36 "Hg10 mi
11:50 AM72 °FPassing clouds.5 mph61%30.36 "HgN/A
10:50 AM70 °FPassing clouds.5 mph57%30.36 "HgN/A
10:20 AM68 °FSunny.3 mph60%30.39 "Hg10 mi
9:50 AM66 °FPassing clouds.5 mph64%30.39 "HgN/A
9:20 AM64 °FSunny.7 mph68%30.39 "Hg10 mi
8:50 AM61 °FSunny.7 mph77%30.39 "Hg10 mi
8:20 AM59 °FSunny.7 mph77%30.39 "Hg10 mi
7:50 AM55 °FSunny.8 mph88%30.39 "Hg10 mi
7:20 AM54 °FClear.8 mph94%30.39 "Hg10 mi
6:50 AM54 °FClear.7 mph88%30.39 "Hg10 mi
6:20 AM52 °FClear.7 mph94%30.39 "Hg10 mi
Weather by CustomWeather, © 2016

See weather overviewHow to use our weather pages